Location: Rogers' Astrophysics Observatory
(34.4289°N, 82.8708°W)
Time: 20:03:29
(UTC-04:00)

Hubble Space Telescope - Visible Passes

Search period start: 20 April 2018 00:00
Search period end: 30 April 2018 00:00
Orbit: 537 x 541 km, 28.5° (Epoch: 20 April)

Date Brightness Start Highest point End Pass type
(mag) Time Alt. Az. Time Alt. Az. Time Alt. Az.
20 Apr 2.8 05:17:06 15° SSE 05:17:06 15° SSE 05:18:20 10° SSE visible
24 Apr 2.8 21:37:49 10° SSW 21:39:00 14° S 21:39:00 14° S visible
25 Apr 2.3 21:27:02 10° SSW 21:29:53 19° SSE 21:29:53 19° SSE visible
26 Apr 2.1 21:16:22 10° SW 21:19:38 22° SSE 21:20:37 21° SE visible
27 Apr 2.0 21:05:48 10° SW 21:09:15 26° SSE 21:11:14 18° SE visible
27 Apr 3.5 22:46:16 10° WSW 22:46:36 12° WSW 22:46:36 12° WSW visible
28 Apr 1.9 20:55:16 10° SW 20:58:51 29° S 21:01:43 14° ESE visible
28 Apr 3.0 22:35:55 10° WSW 22:37:05 17° WSW 22:37:05 17° WSW visible
29 Apr 1.8 20:44:48 10° SW 20:48:29 31° S 20:52:07 10° ESE visible
29 Apr 2.6 22:25:35 10° WSW 22:27:29 23° SW 22:27:29 23° SW visible
